| time (UTC) | temp F | wind direction | speed MPH | gust MPH | rain 1hr in | rain 24hr in | rain mn in | humidity % | barometer mb |
| 20260506113703 | 58 | 191 | 0.0 | 0.0 | 0.00 | 0.00 | 0.00 | 86 | 1021.6 |
| 20260506113200 | 58 | 184 | 0.0 | 0.0 | 0.00 | 0.00 | 0.00 | 86 | 1021.5 |
| 20260506112655 | 58 | 194 | 0.0 | 0.0 | 0.00 | 0.00 | 0.00 | 86 | 1021.4 |
| 20260506112154 | 58 | 180 | 0.0 | 0.0 | 0.00 | 0.00 | 0.00 | 86 | 1021.3 |
| 20260506111651 | 58 | 186 | 0.0 | 0.0 | 0.00 | 0.00 | 0.00 | 85 | 1021.2 |
| 20260506111149 | 58 | 184 | 0.0 | 0.0 | 0.00 | 0.00 | 0.00 | 85 | 1021.3 |
| 20260506110646 | 58 | 189 | 0.0 | 0.0 | 0.00 | 0.00 | 0.00 | 85 | 1021.2 |
| 20260506110143 | 59 | 186 | 0.0 | 0.0 | 0.00 | 0.00 | 0.00 | 85 | 1021.3 |
| 20260506105640 | 59 | 184 | 0.0 | 0.0 | 0.00 | 0.00 | 0.00 | 84 | 1021.2 |
| 20260506105137 | 59 | 186 | 0.0 | 0.0 | 0.00 | 0.00 | 0.00 | 84 | 1021.0 |
| 20260506104634 | 59 | 180 | 0.0 | 1.0 | 0.00 | 0.00 | 0.00 | 84 | 1021.1 |
| 20260506104132 | 59 | 185 | 1.0 | 1.0 | 0.00 | 0.00 | 0.00 | 84 | 1021.0 |
| 20260506103629 | 59 | 186 | 1.0 | 1.0 | 0.00 | 0.00 | 0.00 | 84 | 1021.1 |
| 20260506103126 | 59 | 197 | 0.0 | 0.0 | 0.00 | 0.00 | 0.00 | 84 | 1021.1 |
| 20260506102624 | 59 | 182 | 0.0 | 1.0 | 0.00 | 0.00 | 0.00 | 83 | 1020.9 |
| 20260506102121 | 59 | 184 | 1.0 | 1.0 | 0.00 | 0.00 | 0.00 | 83 | 1020.8 |
| 20260506101617 | 59 | 185 | 0.0 | 0.0 | 0.00 | 0.00 | 0.00 | 83 | 1020.9 |
| 20260506101114 | 59 | 186 | 1.0 | 1.0 | 0.00 | 0.00 | 0.00 | 82 | 1021.1 |
| 20260506100613 | 59 | 191 | 1.0 | 2.0 | 0.00 | 0.00 | 0.00 | 82 | 1020.8 |
| 20260506100110 | 59 | 193 | 2.0 | 2.0 | 0.00 | 0.00 | 0.00 | 82 | 1021.0 |
| 20260506095609 | 59 | 172 | 1.0 | 1.0 | 0.00 | 0.00 | 0.00 | 82 | 1020.7 |
| 20260506095105 | 59 | 200 | 2.0 | 2.0 | 0.00 | 0.00 | 0.00 | 82 | 1020.8 |
| 20260506094603 | 59 | 194 | 2.0 | 3.0 | 0.00 | 0.00 | 0.00 | 82 | 1021.0 |
| 20260506094101 | 59 | 210 | 2.0 | 2.0 | 0.00 | 0.00 | 0.00 | 82 | 1020.8 |
| 20260506093559 | 59 | 201 | 2.0 | 2.0 | 0.00 | 0.00 | 0.00 | 82 | 1020.7 |
| 20260506093056 | 60 | 179 | 1.0 | 1.0 | 0.00 | 0.00 | 0.00 | 81 | 1020.9 |
| 20260506092554 | 60 | 199 | 1.0 | 1.0 | 0.00 | 0.00 | 0.00 | 81 | 1020.8 |
| 20260506092050 | 60 | 201 | 2.0 | 3.0 | 0.00 | 0.00 | 0.00 | 81 | 1020.9 |
| 20260506091549 | 60 | 211 | 1.0 | 1.0 | 0.00 | 0.00 | 0.00 | 81 | 1020.9 |
| 20260506091046 | 60 | 186 | 3.0 | 5.0 | 0.00 | 0.00 | 0.00 | 81 | 1020.9 |
| 20260506090543 | 60 | 220 | 3.0 | 3.0 | 0.00 | 0.00 | 0.00 | 81 | 1020.9 |
| 20260506090039 | 60 | 207 | 1.0 | 1.0 | 0.00 | 0.00 | 0.00 | 81 | 1020.8 |
| 20260506085536 | 60 | 205 | 2.0 | 2.0 | 0.00 | 0.00 | 0.00 | 82 | 1021.0 |
| 20260506085033 | 60 | 188 | 0.0 | 0.0 | 0.00 | 0.00 | 0.00 | 82 | 1020.8 |
| 20260506084530 | 60 | 186 | 1.0 | 1.0 | 0.00 | 0.00 | 0.00 | 82 | 1021.0 |
| 20260506084026 | 60 | 196 | 2.0 | 2.0 | 0.00 | 0.00 | 0.00 | 82 | 1020.9 |
| 20260506083523 | 60 | 203 | 1.0 | 1.0 | 0.00 | 0.00 | 0.00 | 82 | 1020.7 |
| 20260506083021 | 60 | 203 | 2.0 | 2.0 | 0.00 | 0.00 | 0.00 | 82 | 1020.8 |
| 20260506082517 | 60 | 196 | 1.0 | 1.0 | 0.00 | 0.00 | 0.00 | 82 | 1020.9 |
| 20260506082013 | 59 | 236 | 3.0 | 3.0 | 0.00 | 0.00 | 0.00 | 82 | 1020.7 |
| 20260506081512 | 59 | 209 | 2.0 | 2.0 | 0.00 | 0.00 | 0.00 | 82 | 1020.9 |
| 20260506081009 | 59 | 193 | 2.0 | 3.0 | 0.00 | 0.00 | 0.00 | 83 | 1021.0 |
| 20260506080506 | 59 | 182 | 1.0 | 1.0 | 0.00 | 0.00 | 0.00 | 83 | 1020.8 |
| 20260506073449 | 60 | 174 | 3.0 | 3.0 | 0.00 | 0.00 | 0.00 | 82 | 1020.6 |
| 20260506072946 | 60 | 196 | 1.0 | 2.0 | 0.00 | 0.00 | 0.00 | 82 | 1020.6 |
| 20260506072444 | 60 | 195 | 3.0 | 3.0 | 0.00 | 0.00 | 0.00 | 82 | 1020.4 |
| 20260506071942 | 60 | 203 | 2.0 | 2.0 | 0.00 | 0.00 | 0.00 | 82 | 1020.4 |
| 20260506071439 | 60 | 222 | 4.0 | 5.0 | 0.00 | 0.00 | 0.00 | 82 | 1020.3 |
| 20260506070936 | 60 | 209 | 4.0 | 5.0 | 0.00 | 0.00 | 0.00 | 82 | 1020.2 |
| 20260506070433 | 60 | 213 | 4.0 | 5.0 | 0.00 | 0.00 | 0.00 | 82 | 1020.3 |
| 20260506062410 | 60 | 184 | 3.0 | 3.0 | 0.00 | 0.03 | 0.03 | 81 | 1020.0 |
| 20260506061906 | 60 | 185 | 3.0 | 5.0 | 0.00 | 0.03 | 0.03 | 81 | 1019.9 |
| 20260506061403 | 60 | 204 | 5.0 | 6.0 | 0.00 | 0.03 | 0.03 | 81 | 1019.9 |
| 20260506060901 | 60 | 193 | 2.0 | 2.0 | 0.00 | 0.03 | 0.03 | 81 | 1020.0 |
| 20260506060359 | 60 | 216 | 4.0 | 6.0 | 0.00 | 0.03 | 0.03 | 81 | 1019.6 |
| 20260506051331 | 60 | 204 | 5.0 | 6.0 | 0.00 | 0.03 | 0.03 | 82 | 1019.4 |
| 20260506050828 | 60 | 209 | 4.0 | 6.0 | 0.00 | 0.03 | 0.03 | 82 | 1019.4 |
| 20260506050325 | 60 | 220 | 4.0 | 5.0 | 0.00 | 0.03 | 0.03 | 82 | 1019.4 |
| 20260506044816 | 60 | 238 | 7.0 | 8.0 | 0.00 | 0.03 | 0.03 | 82 | 1019.1 |
| 20260506044314 | 60 | 232 | 2.0 | 3.0 | 0.00 | 0.03 | 0.03 | 82 | 1018.9 |
| 20260506043810 | 60 | 215 | 6.0 | 8.0 | 0.00 | 0.03 | 0.03 | 82 | 1018.9 |
| 20260506043308 | 60 | 196 | 5.0 | 7.0 | 0.00 | 0.03 | 0.03 | 82 | 1019.1 |
| 20260506042806 | 60 | 177 | 5.0 | 7.0 | 0.00 | 0.03 | 0.03 | 82 | 1018.9 |
| 20260506042305 | 60 | 210 | 2.0 | 2.0 | 0.00 | 0.03 | 0.03 | 82 | 1018.8 |
| 20260506041803 | 60 | 228 | 4.0 | 5.0 | 0.00 | 0.03 | 0.03 | 82 | 1019.1 |
| 20260506041300 | 60 | 211 | 5.0 | 7.0 | 0.00 | 0.03 | 0.03 | 81 | 1018.8 |
| 20260506040757 | 60 | 205 | 5.0 | 7.0 | 0.00 | 0.03 | 0.03 | 81 | 1018.9 |
| 20260506040254 | 60 | 262 | 3.0 | 5.0 | 0.00 | 0.03 | 0.03 | 81 | 1018.8 |
| 20260506035750 | 60 | 218 | 4.0 | 5.0 | 0.00 | 0.03 | 0.03 | 81 | 1018.7 |
| 20260506035247 | 60 | 208 | 3.0 | 5.0 | 0.00 | 0.03 | 0.03 | 81 | 1018.7 |
| 20260506034745 | 61 | 188 | 5.0 | 7.0 | 0.00 | 0.03 | 0.03 | 81 | 1018.8 |
| 20260506034242 | 61 | 274 | 4.0 | 6.0 | 0.00 | 0.03 | 0.03 | 81 | 1018.7 |
| 20260506033739 | 61 | 214 | 5.0 | 6.0 | 0.00 | 0.03 | 0.03 | 81 | 1018.6 |
| 20260506033236 | 61 | 225 | 5.0 | 6.0 | 0.00 | 0.03 | 0.03 | 81 | 1018.7 |
| 20260506032732 | 61 | 235 | 6.0 | 6.0 | 0.00 | 0.03 | 0.03 | 81 | 1018.3 |
| 20260506032230 | 61 | 215 | 3.0 | 5.0 | 0.00 | 0.03 | 0.03 | 81 | 1018.3 |
| 20260506031726 | 61 | 200 | 4.0 | 7.0 | 0.00 | 0.03 | 0.03 | 80 | 1018.2 |
| 20260506031224 | 61 | 230 | 4.0 | 5.0 | 0.00 | 0.03 | 0.03 | 80 | 1018.2 |
| 20260506030722 | 61 | 190 | 5.0 | 7.0 | 0.00 | 0.03 | 0.03 | 80 | 1018.1 |
| 20260506030219 | 61 | 216 | 5.0 | 8.0 | 0.00 | 0.03 | 0.03 | 80 | 1018.1 |
| 20260506025716 | 62 | 208 | 7.0 | 9.0 | 0.00 | 0.03 | 0.03 | 80 | 1018.0 |
| 20260506025212 | 62 | 216 | 7.0 | 9.0 | 0.00 | 0.03 | 0.03 | 80 | 1017.8 |
| 20260506024709 | 62 | 238 | 6.0 | 9.0 | 0.00 | 0.03 | 0.03 | 80 | 1017.9 |
| 20260506024205 | 62 | 184 | 9.0 | 10.0 | 0.00 | 0.03 | 0.03 | 80 | 1018.0 |
| 20260506023702 | 62 | 213 | 9.0 | 11.0 | 0.00 | 0.03 | 0.03 | 80 | 1018.0 |
| 20260506023159 | 62 | 214 | 6.0 | 7.0 | 0.00 | 0.03 | 0.03 | 81 | 1017.9 |
| 20260506022656 | 62 | 231 | 5.0 | 6.0 | 0.00 | 0.03 | 0.03 | 81 | 1017.9 |
| 20260506022154 | 62 | 187 | 4.0 | 6.0 | 0.00 | 0.03 | 0.03 | 81 | 1017.7 |
| 20260506021652 | 62 | 208 | 5.0 | 5.0 | 0.00 | 0.03 | 0.03 | 81 | 1017.7 |
| 20260506021148 | 62 | 208 | 4.0 | 6.0 | 0.00 | 0.03 | 0.03 | 80 | 1017.6 |
| 20260506020645 | 62 | 197 | 7.0 | 8.0 | 0.00 | 0.03 | 0.03 | 80 | 1017.7 |
| 20260506020143 | 63 | 223 | 9.0 | 13.0 | 0.00 | 0.03 | 0.03 | 80 | 1017.8 |
| 20260506015640 | 63 | 263 | 4.0 | 6.0 | 0.00 | 0.03 | 0.03 | 79 | 1017.8 |
| 20260506015137 | 63 | 267 | 4.0 | 6.0 | 0.00 | 0.03 | 0.03 | 79 | 1017.8 |
| 20260506014635 | 63 | 212 | 5.0 | 8.0 | 0.00 | 0.03 | 0.03 | 78 | 1017.7 |
| 20260506014130 | 63 | 203 | 8.0 | 10.0 | 0.00 | 0.03 | 0.03 | 79 | 1017.9 |
| 20260506013629 | 64 | 212 | 6.0 | 8.0 | 0.00 | 0.03 | 0.03 | 78 | 1017.9 |
| 20260506013125 | 64 | 232 | 6.0 | 8.0 | 0.00 | 0.03 | 0.03 | 78 | 1017.7 |
| 20260506012622 | 64 | 214 | 8.0 | 9.0 | 0.00 | 0.03 | 0.03 | 78 | 1017.7 |
| 20260506012118 | 64 | 235 | 4.0 | 5.0 | 0.00 | 0.03 | 0.03 | 77 | 1017.7 |
| 20260506011616 | 64 | 196 | 3.0 | 5.0 | 0.00 | 0.03 | 0.03 | 78 | 1017.7 |
| 20260506011112 | 64 | 183 | 7.0 | 9.0 | 0.00 | 0.03 | 0.03 | 77 | 1017.7 |
| 20260506010606 | 64 | 158 | 6.0 | 13.0 | 0.00 | 0.03 | 0.03 | 77 | 1017.2 |
| 20260506005559 | 65 | 222 | 5.0 | 9.0 | 0.00 | 0.03 | 0.03 | 77 | 1017.3 |
| 20260506005055 | 65 | 222 | 6.0 | 9.0 | 0.00 | 0.03 | 0.03 | 77 | 1017.5 |
| 20260506004552 | 65 | 229 | 9.0 | 11.0 | 0.00 | 0.03 | 0.03 | 76 | 1017.3 |
| 20260506004049 | 65 | 218 | 5.0 | 6.0 | 0.00 | 0.03 | 0.03 | 76 | 1017.4 |
| 20260506003545 | 66 | 210 | 5.0 | 8.0 | 0.00 | 0.03 | 0.03 | 76 | 1017.4 |
| 20260506003042 | 66 | 179 | 6.0 | 7.0 | 0.00 | 0.03 | 0.03 | 75 | 1017.6 |
| 20260506002538 | 65 | 232 | 4.0 | 5.0 | 0.00 | 0.03 | 0.03 | 76 | 1017.4 |
| 20260506002034 | 65 | 202 | 9.0 | 10.0 | 0.00 | 0.03 | 0.03 | 76 | 1017.4 |
| 20260506001530 | 65 | 229 | 7.0 | 9.0 | 0.00 | 0.03 | 0.03 | 76 | 1017.5 |
| 20260506001028 | 66 | 198 | 3.0 | 5.0 | 0.00 | 0.03 | 0.03 | 75 | 1017.3 |
| 20260506000525 | 66 | 235 | 4.0 | 6.0 | 0.00 | 0.03 | 0.03 | 75 | 1017.3 |
| 20260506000023 | 65 | 227 | 7.0 | 8.0 | 0.00 | 0.03 | 0.03 | 75 | 1017.2 |
| 20260505235520 | 66 | 266 | 6.0 | 9.0 | 0.00 | 0.03 | 0.03 | 74 | 1017.2 |
| 20260505235017 | 65 | 212 | 4.0 | 6.0 | 0.00 | 0.03 | 0.03 | 76 | 1017.3 |
| 20260505234514 | 65 | 214 | 7.0 | 9.0 | 0.00 | 0.03 | 0.03 | 76 | 1017.5 |
| 20260505234011 | 65 | 210 | 5.0 | 6.0 | 0.00 | 0.03 | 0.03 | 76 | 1017.5 |
| 20260505233508 | 66 | 233 | 3.0 | 3.0 | 0.00 | 0.03 | 0.03 | 76 | 1017.3 |
| 20260505233005 | 66 | 215 | 3.0 | 5.0 | 0.00 | 0.03 | 0.03 | 76 | 1017.4 |
| 20260505232503 | 65 | 205 | 1.0 | 3.0 | 0.00 | 0.03 | 0.03 | 76 | 1017.5 |
| 20260505232001 | 65 | 215 | 3.0 | 3.0 | 0.00 | 0.03 | 0.03 | 77 | 1017.3 |
| 20260505231457 | 64 | 220 | 2.0 | 3.0 | 0.00 | 0.03 | 0.03 | 78 | 1017.5 |
| 20260505230956 | 64 | 223 | 7.0 | 8.0 | 0.00 | 0.03 | 0.03 | 78 | 1017.6 |
| 20260505230453 | 64 | 178 | 4.0 | 5.0 | 0.00 | 0.03 | 0.03 | 78 | 1017.7 |
| 20260505225949 | 64 | 222 | 8.0 | 9.0 | 0.00 | 0.03 | 0.03 | 78 | 1017.4 |
| 20260505225446 | 64 | 206 | 3.0 | 6.0 | 0.00 | 0.03 | 0.03 | 78 | 1017.5 |
| 20260505224942 | 64 | 202 | 5.0 | 7.0 | 0.00 | 0.03 | 0.03 | 79 | 1017.6 |
| 20260505224439 | 64 | 201 | 8.0 | 11.0 | 0.00 | 0.03 | 0.03 | 78 | 1017.5 |
| 20260505223937 | 64 | 214 | 4.0 | 5.0 | 0.00 | 0.03 | 0.03 | 78 | 1017.6 |
| 20260505223433 | 64 | 195 | 5.0 | 6.0 | 0.00 | 0.03 | 0.03 | 78 | 1017.6 |
| 20260505222930 | 64 | 209 | 4.0 | 5.0 | 0.00 | 0.03 | 0.03 | 78 | 1017.7 |
| 20260505222426 | 64 | 215 | 2.0 | 5.0 | 0.00 | 0.03 | 0.03 | 78 | 1017.7 |
| 20260505221922 | 64 | 163 | 0.0 | 0.0 | 0.00 | 0.03 | 0.03 | 78 | 1017.7 |
| 20260505221420 | 65 | 162 | 1.0 | 2.0 | 0.00 | 0.03 | 0.03 | 78 | 1017.8 |
| 20260505220917 | 65 | 57 | 1.0 | 2.0 | 0.00 | 0.03 | 0.03 | 77 | 1017.7 |
| 20260505220413 | 65 | 79 | 3.0 | 3.0 | 0.00 | 0.03 | 0.03 | 77 | 1017.6 |
| 20260505215911 | 65 | 137 | 1.0 | 2.0 | 0.00 | 0.03 | 0.03 | 78 | 1017.8 |
| 20260505215409 | 66 | 178 | 2.0 | 2.0 | 0.00 | 0.03 | 0.03 | 76 | 1017.6 |
| 20260505214907 | 65 | 216 | 2.0 | 3.0 | 0.00 | 0.03 | 0.03 | 77 | 1017.9 |
| 20260505214404 | 65 | 232 | 1.0 | 3.0 | 0.00 | 0.03 | 0.03 | 77 | 1017.8 |
| 20260505213901 | 65 | 140 | 2.0 | 5.0 | 0.00 | 0.03 | 0.03 | 77 | 1017.9 |
| 20260505213359 | 65 | 149 | 1.0 | 1.0 | 0.00 | 0.03 | 0.03 | 79 | 1017.7 |
| 20260505212855 | 64 | 183 | 1.0 | 1.0 | 0.00 | 0.03 | 0.03 | 78 | 1018.0 |
| 20260505212352 | 65 | 173 | 2.0 | 2.0 | 0.00 | 0.03 | 0.03 | 78 | 1017.8 |
| 20260505211848 | 64 | 172 | 2.0 | 3.0 | 0.00 | 0.03 | 0.03 | 79 | 1017.8 |
| 20260505211346 | 64 | 132 | 2.0 | 3.0 | 0.00 | 0.03 | 0.03 | 79 | 1018.0 |
| 20260505210842 | 64 | 182 | 0.0 | 1.0 | 0.00 | 0.03 | 0.03 | 79 | 1018.1 |
| 20260505210339 | 64 | 173 | 0.0 | 1.0 | 0.00 | 0.03 | 0.03 | 78 | 1018.1 |
| 20260505205836 | 65 | 146 | 1.0 | 1.0 | 0.00 | 0.03 | 0.03 | 78 | 1017.8 |
| 20260505205334 | 65 | 158 | 0.0 | 0.0 | 0.00 | 0.03 | 0.03 | 77 | 1018.1 |
| 20260505204831 | 65 | 232 | 0.0 | 0.0 | 0.00 | 0.03 | 0.03 | 77 | 1018.2 |
| 20260505204329 | 66 | 193 | 0.0 | 1.0 | 0.00 | 0.03 | 0.03 | 76 | 1018.1 |
| 20260505203826 | 67 | 192 | 1.0 | 1.0 | 0.00 | 0.03 | 0.03 | 75 | 1018.0 |
| 20260505203322 | 66 | 191 | 0.0 | 0.0 | 0.00 | 0.03 | 0.03 | 76 | 1018.1 |
| 20260505202819 | 66 | 282 | 1.0 | 2.0 | 0.00 | 0.03 | 0.03 | 74 | 1018.1 |
| 20260505202315 | 64 | 190 | 1.0 | 2.0 | 0.00 | 0.03 | 0.03 | 79 | 1018.2 |
| 20260505201811 | 66 | 159 | 2.0 | 3.0 | 0.00 | 0.03 | 0.03 | 78 | 1018.1 |
| 20260505201309 | 64 | 186 | 0.0 | 0.0 | 0.00 | 0.03 | 0.03 | 80 | 1018.3 |
| 20260505200807 | 64 | 130 | 1.0 | 2.0 | 0.00 | 0.03 | 0.03 | 81 | 1018.3 |
| 20260505200304 | 64 | 96 | 3.0 | 3.0 | 0.00 | 0.03 | 0.03 | 79 | 1018.3 |
| 20260505195759 | 63 | 155 | 1.0 | 2.0 | 0.00 | 0.03 | 0.03 | 82 | 1018.2 |
| 20260505195257 | 62 | 107 | 1.0 | 1.0 | 0.00 | 0.03 | 0.03 | 83 | 1018.3 |
| 20260505194754 | 63 | 4 | 1.0 | 2.0 | 0.00 | 0.03 | 0.03 | 83 | 1018.4 |
| 20260505194251 | 62 | 180 | 0.0 | 0.0 | 0.00 | 0.03 | 0.03 | 84 | 1018.5 |
| 20260505193746 | 62 | 190 | 0.0 | 1.0 | 0.00 | 0.03 | 0.03 | 84 | 1018.4 |
| 20260505193244 | 62 | 75 | 0.0 | 1.0 | 0.00 | 0.03 | 0.03 | 84 | 1018.5 |
| 20260505192742 | 62 | 164 | 0.0 | 0.0 | 0.00 | 0.03 | 0.03 | 86 | 1018.6 |
| 20260505192240 | 61 | 199 | 0.0 | 0.0 | 0.00 | 0.03 | 0.03 | 86 | 1018.3 |
| 20260505191737 | 60 | 180 | 0.0 | 0.0 | 0.00 | 0.03 | 0.03 | 87 | 1018.3 |
| 20260505191236 | 60 | 31 | 2.0 | 2.0 | 0.00 | 0.03 | 0.03 | 88 | 1018.4 |
| 20260505190732 | 60 | 310 | 0.0 | 0.0 | 0.00 | 0.03 | 0.03 | 89 | 1018.6 |
| 20260505190232 | 60 | 198 | 1.0 | 1.0 | 0.00 | 0.03 | 0.03 | 89 | 1018.4 |
| 20260505185728 | 60 | 19 | 6.0 | 7.0 | 0.00 | 0.03 | 0.03 | 87 | 1018.5 |
| 20260505185225 | 60 | 28 | 1.0 | 2.0 | 0.00 | 0.03 | 0.03 | 87 | 1018.2 |
| 20260505184721 | 60 | 21 | 1.0 | 2.0 | 0.00 | 0.03 | 0.03 | 87 | 1018.3 |
| 20260505184218 | 61 | 49 | 0.0 | 1.0 | 0.00 | 0.03 | 0.03 | 86 | 1018.2 |
| 20260505183715 | 61 | 161 | 0.0 | 1.0 | 0.00 | 0.03 | 0.03 | 86 | 1018.1 |
| 20260505183213 | 60 | 302 | 3.0 | 3.0 | 0.00 | 0.03 | 0.03 | 86 | 1018.2 |
| 20260505182708 | 60 | 213 | 1.0 | 2.0 | 0.00 | 0.03 | 0.03 | 87 | 1018.2 |
| 20260505182206 | 60 | 44 | 2.0 | 2.0 | 0.00 | 0.03 | 0.03 | 88 | 1018.2 |
| 20260505181702 | 59 | 276 | 3.0 | 3.0 | 0.00 | 0.03 | 0.03 | 88 | 1018.1 |
| 20260505181200 | 59 | 79 | 3.0 | 5.0 | 0.00 | 0.03 | 0.03 | 88 | 1018.2 |
| 20260505180655 | 59 | 341 | 3.0 | 3.0 | 0.00 | 0.03 | 0.03 | 89 | 1018.1 |
| 20260505180153 | 60 | 315 | 4.0 | 5.0 | 0.00 | 0.03 | 0.03 | 88 | 1018.1 |
| 20260505175649 | 60 | 338 | 5.0 | 6.0 | 0.00 | 0.03 | 0.03 | 89 | 1018.3 |
| 20260505175145 | 59 | 0 | 2.0 | 3.0 | 0.00 | 0.03 | 0.03 | 90 | 1018.0 |
| 20260505174642 | 59 | 17 | 3.0 | 3.0 | 0.00 | 0.03 | 0.03 | 91 | 1018.2 |
| 20260505174138 | 59 | 46 | 3.0 | 3.0 | 0.00 | 0.03 | 0.03 | 90 | 1018.1 |
| 20260505173635 | 60 | 8 | 3.0 | 5.0 | 0.00 | 0.03 | 0.03 | 89 | 1018.0 |
| 20260505173132 | 59 | 247 | 1.0 | 1.0 | 0.00 | 0.03 | 0.03 | 90 | 1017.9 |
| 20260505172629 | 59 | 350 | 4.0 | 5.0 | 0.00 | 0.03 | 0.03 | 88 | 1017.8 |
| 20260505172126 | 59 | 20 | 0.0 | 2.0 | 0.00 | 0.03 | 0.03 | 89 | 1017.7 |
| 20260505171621 | 59 | 356 | 2.0 | 2.0 | 0.00 | 0.03 | 0.03 | 88 | 1017.7 |
| 20260505171118 | 60 | 355 | 3.0 | 3.0 | 0.00 | 0.03 | 0.03 | 86 | 1017.8 |
| 20260505170615 | 59 | 179 | 0.0 | 0.0 | 0.00 | 0.03 | 0.03 | 89 | 1017.8 |
| 20260505170111 | 58 | 295 | 1.0 | 1.0 | 0.00 | 0.03 | 0.03 | 89 | 1017.9 |
| 20260505165606 | 59 | 228 | 1.0 | 2.0 | 0.00 | 0.03 | 0.03 | 88 | 1017.8 |
| 20260505165103 | 59 | 205 | 1.0 | 1.0 | 0.00 | 0.03 | 0.03 | 88 | 1017.9 |
| 20260505164558 | 59 | 259 | 2.0 | 2.0 | 0.00 | 0.03 | 0.03 | 88 | 1017.7 |
| 20260505164056 | 58 | 167 | 0.0 | 0.0 | 0.00 | 0.03 | 0.03 | 90 | 1017.8 |
| 20260505163555 | 58 | 188 | 0.0 | 0.0 | 0.00 | 0.03 | 0.03 | 91 | 1017.8 |
| 20260505163052 | 58 | 13 | 2.0 | 3.0 | 0.00 | 0.03 | 0.03 | 90 | 1017.6 |
| 20260505162549 | 57 | 203 | 0.0 | 0.0 | 0.00 | 0.03 | 0.03 | 92 | 1017.7 |
| 20260505162047 | 58 | 228 | 0.0 | 1.0 | 0.00 | 0.03 | 0.03 | 93 | 1017.7 |
| 20260505161544 | 57 | 185 | 0.0 | 0.0 | 0.00 | 0.03 | 0.03 | 93 | 1017.6 |
| 20260505161041 | 57 | 180 | 0.0 | 0.0 | 0.00 | 0.03 | 0.03 | 93 | 1017.6 |
| 20260505160539 | 57 | 159 | 0.0 | 0.0 | 0.00 | 0.03 | 0.03 | 94 | 1017.6 |
| 20260505153015 | 57 | 187 | 0.0 | 0.0 | 0.00 | 0.03 | 0.03 | 94 | 1017.4 |
| 20260505152512 | 57 | 190 | 0.0 | 0.0 | 0.00 | 0.03 | 0.03 | 94 | 1017.2 |
| 20260505152008 | 56 | 186 | 0.0 | 0.0 | 0.00 | 0.03 | 0.03 | 94 | 1016.9 |
| 20260505151503 | 56 | 183 | 0.0 | 0.0 | 0.00 | 0.03 | 0.03 | 93 | 1017.0 |
| 20260505151000 | 56 | 185 | 0.0 | 0.0 | 0.00 | 0.03 | 0.03 | 93 | 1017.2 |
| 20260505150457 | 56 | 186 | 0.0 | 0.0 | 0.00 | 0.03 | 0.03 | 94 | 1016.9 |
| 20260505140427 | 55 | 198 | 2.0 | 3.0 | 0.00 | 0.03 | 0.03 | 94 | 1016.3 |
| 20260505124841 | 54 | 214 | 4.0 | 5.0 | 0.00 | 0.03 | 0.03 | 97 | 1016.1 |
| 20260505124338 | 54 | 212 | 2.0 | 5.0 | 0.00 | 0.03 | 0.03 | 97 | 1016.1 |
| 20260505123833 | 54 | 206 | 4.0 | 5.0 | 0.00 | 0.03 | 0.03 | 97 | 1016.3 |
| 20260505123330 | 54 | 191 | 2.0 | 2.0 | 0.00 | 0.03 | 0.03 | 97 | 1016.0 |
| 20260505122826 | 54 | 184 | 2.0 | 2.0 | 0.00 | 0.03 | 0.03 | 97 | 1015.9 |
| 20260505122324 | 54 | 248 | 5.0 | 6.0 | 0.00 | 0.03 | 0.03 | 97 | 1016.0 |
| 20260505121821 | 53 | 216 | 7.0 | 8.0 | 0.00 | 0.03 | 0.03 | 98 | 1015.9 |
| 20260505121318 | 53 | 220 | 6.0 | 7.0 | 0.00 | 0.03 | 0.03 | 98 | 1016.0 |
| 20260505120814 | 53 | 220 | 5.0 | 7.0 | 0.00 | 0.03 | 0.03 | 98 | 1016.1 |
| 20260505120310 | 53 | 213 | 4.0 | 5.0 | 0.00 | 0.03 | 0.03 | 98 | 1016.0 |
| 20260505115808 | 53 | 211 | 6.0 | 8.0 | 0.00 | 0.03 | 0.03 | 98 | 1016.3 |
| 20260505115306 | 53 | 209 | 3.0 | 3.0 | 0.00 | 0.03 | 0.03 | 99 | 1016.2 |
| 20260505114804 | 53 | 190 | 3.0 | 6.0 | 0.00 | 0.03 | 0.03 | 99 | 1016.3 |
| 20260505114300 | 53 | 200 | 3.0 | 3.0 | 0.00 | 0.03 | 0.03 | 99 | 1016.2 |